Home   Weather   Cairo   Past weeks

Flag for Egypt Past Weather in Cairo, Egypt — Yesterday and Last 2 Weeks

Now
70 °F

Partly sunny.


Feels Like: 70 °F
Forecast: 55 / 76 °F
Wind: No wind

Location: Cairo Airport

Current Time: Feb 28, 2017 at 9:56:11 am

Latest Report: Feb 28, 2017 at 9:30 am


Visibility: 1 mi

Pressure: 29.80 "Hg

Humidity: 60%

Dew Point: 55 °F

Location of CairoLocation

Past Weather in Cairo — Graph

°F

Cairo Temperature Yesterday

Maximum temperature yesterday: 79 °F (at 2:30 pm)
Minimum temperature yesterday: 55 °F (at 5:00 am)
Average temperature yesterday: 66 °F

High & Low Weather Summary for the Past Weeks

 TemperatureHumidityPressure
High79 °F (Feb 27, 2:30 pm)100% (Feb 24, 8:00 am)30.36 "Hg (Feb 24, 8:00 am)
Low45 °F (Feb 17, 6:30 am)25% (Feb 26, 3:30 pm)29.77 "Hg (Feb 28, 5:00 am)
Average59 °F65%30.15 "Hg
* Reported Feb 13 8:00 am — Feb 28 8:30 am, Cairo, Weather by CustomWeather, © 2017

Note: Actual official high and low records may vary slightly from our data, if they occured in-between our weather recording intervals... More about our weather records

Advertising

Cairo Weather History for the Previous 24 Hours

Scroll right to see more
 ConditionsComfort  
Time TempWeatherWind HumidityBarometerVisibility
8:30 am
Tue, Feb 28
68 °FPartly sunny.3 mph64%29.83 "Hg2 mi
8:00 am66 °FPartly sunny.8 mph64%29.80 "Hg2 mi
7:30 am64 °FPartly sunny.7 mph68%29.80 "Hg2 mi
7:00 am64 °FPartly sunny.9 mph64%29.77 "Hg2 mi
6:30 am64 °FPartly sunny.3 mph64%29.77 "Hg4 mi
6:00 am66 °FPassing clouds.3 mph52%29.77 "Hg4 mi
5:30 am66 °FClear.6 mph52%29.77 "Hg4 mi
5:00 am66 °FClear.16 mph49%29.77 "Hg4 mi
4:00 am63 °FClear.6 mph73%29.80 "Hg4 mi
3:30 am63 °FClear.2 mph77%29.80 "Hg4 mi
3:00 am63 °FClear.5 mph77%29.80 "Hg4 mi
2:30 am63 °FClear.3 mph77%29.80 "Hg4 mi
2:00 am63 °FClear.9 mph77%29.83 "Hg4 mi
1:30 am64 °FClear.10 mph73%29.83 "Hg4 mi
1:00 am64 °FClear.7 mph73%29.86 "Hg4 mi
12:30 am66 °FClear.8 mph68%29.86 "Hg10 mi
12:00 am66 °FClear.5 mph64%29.86 "Hg10 mi
11:30 pm
Mon, Feb 27
66 °FClear.2 mph64%29.86 "Hg10 mi
11:00 pm66 °FClear.15 mph64%29.86 "Hg10 mi
10:30 pm68 °FClear.13 mph60%29.83 "Hg10 mi
10:00 pm68 °FClear.9 mph60%29.86 "Hg10 mi
9:30 pm68 °FClear.15 mph60%29.89 "Hg10 mi
9:00 pm68 °FClear.13 mph64%29.86 "Hg10 mi
8:30 pm70 °FClear.14 mph60%29.86 "Hg10 mi
8:00 pm70 °FClear.12 mph60%29.89 "Hg10 mi
7:30 pm72 °FClear.13 mph57%29.86 "Hg10 mi
7:00 pm72 °FClear.13 mph61%29.86 "Hg10 mi
6:30 pm73 °FClear.10 mph57%29.86 "Hg4 mi
6:00 pm75 °FClear.9 mph47%29.86 "Hg4 mi
5:30 pm75 °FSunny.10 mph41%29.86 "Hg10 mi
5:00 pm79 °FSunny.7 mph30%29.86 "Hg10 mi
4:30 pm79 °FSunny.7 mph30%29.86 "Hg10 mi
4:00 pm79 °FSunny.8 mph28%29.86 "Hg10 mi
3:30 pm79 °FSunny.8 mph28%29.86 "Hg10 mi
3:00 pm79 °FSunny.8 mph28%29.86 "Hg10 mi
2:30 pm79 °FSunny.9 mph30%29.86 "Hg10 mi
2:00 pm77 °FSunny.9 mph28%29.89 "Hg10 mi
1:30 pm77 °FSunny.10 mph30%29.89 "Hg10 mi
1:00 pm75 °FSunny.10 mph31%29.92 "Hg10 mi
12:30 pm73 °FSunny.10 mph36%29.92 "Hg10 mi
12:00 pm72 °FSunny.9 mph41%29.92 "Hg10 mi
11:30 am70 °FSunny.12 mph46%29.95 "Hg10 mi
11:00 am66 °FSunny.13 mph56%29.98 "Hg10 mi
10:30 am66 °FClear.12 mph60%29.98 "Hg4 mi
10:00 am63 °FClear.10 mph73%30.01 "Hg4 mi
9:30 am61 °FClear.10 mph83%30.01 "Hg4 mi
9:00 am59 °FFog.10 mph88%30.01 "Hg2 mi
Weather by CustomWeather, © 2017

See weather overviewHow to use our weather pages